| time (UTC) | temp C | wind direction | speed KPH | gust KPH | rain 1hr cm | rain 24hr cm | rain mn cm | humidity % | barometer mb |
| 20260905224601 | 30 | 334 | 9.7 | 22.5 | 0.00 | 0.00 | 0.00 | 69 | 1011.6 |
| 20260905223030 | 31 | 309 | 9.7 | 25.7 | 0.00 | 0.00 | 0.00 | 69 | 1011.3 |
| 20260905221602 | 31 | 336 | 11.3 | 29.0 | 0.00 | 0.00 | 0.00 | 69 | 1011.0 |
| 20260905220112 | 32 | 344 | 11.3 | 22.5 | 0.00 | 0.00 | 0.00 | 69 | 1011.0 |
| 20260905214527 | 32 | 353 | 8.0 | 24.1 | 0.00 | 0.00 | 0.00 | 69 | 1010.9 |
| 20260905213109 | 32 | 354 | 8.0 | 22.5 | 0.00 | 0.00 | 0.00 | 69 | 1010.7 |
| 20260905211525 | 33 | 5 | 6.4 | 22.5 | 0.00 | 0.00 | 0.00 | 68 | 1010.6 |
| 20260905210106 | 33 | 356 | 9.7 | 24.1 | 0.00 | 0.00 | 0.00 | 67 | 1010.4 |
| 20260905204505 | 33 | 274 | 8.0 | 16.1 | 0.00 | 0.00 | 0.00 | 65 | 1010.6 |
| 20260905203047 | 33 | 264 | 6.4 | 16.1 | 0.00 | 0.00 | 0.00 | 64 | 1010.6 |
| 20260905201502 | 33 | 322 | 4.8 | 11.3 | 0.00 | 0.00 | 0.00 | 65 | 1010.6 |
| 20260905200013 | 32 | 320 | 4.8 | 11.3 | 0.00 | 0.00 | 0.00 | 67 | 1010.7 |
| 20260905194557 | 33 | 213 | 4.8 | 12.9 | 0.00 | 0.00 | 0.00 | 66 | 1010.8 |
| 20260905193018 | 33 | 293 | 4.8 | 14.5 | 0.00 | 0.00 | 0.00 | 67 | 1011.1 |
| 20260905191556 | 33 | 311 | 4.8 | 16.1 | 0.00 | 0.00 | 0.00 | 67 | 1011.4 |
| 20260905190109 | 33 | 192 | 6.4 | 12.9 | 0.00 | 0.00 | 0.00 | 67 | 1011.2 |
| 20260905184547 | 33 | 310 | 4.8 | 12.9 | 0.00 | 0.00 | 0.00 | 65 | 1011.6 |
| 20260905183108 | 33 | 226 | 3.2 | 9.7 | 0.00 | 0.00 | 0.00 | 66 | 1011.7 |
| 20260905181544 | 33 | 255 | 3.2 | 8.0 | 0.00 | 0.00 | 0.00 | 66 | 1012.1 |
| 20260905180050 | 33 | 180 | 3.2 | 14.5 | 0.00 | 0.00 | 0.00 | 66 | 1012.6 |
| 20260905174505 | 33 | 213 | 6.4 | 14.5 | 0.00 | 0.00 | 0.00 | 66 | 1012.7 |
| 20260905173053 | 32 | 181 | 1.6 | 14.5 | 0.00 | 0.00 | 0.00 | 67 | 1012.8 |
| 20260905171504 | 32 | 212 | 4.8 | 14.5 | 0.00 | 0.00 | 0.00 | 66 | 1013.1 |
| 20260905170029 | 32 | 196 | 3.2 | 11.3 | 0.00 | 0.00 | 0.00 | 67 | 1013.1 |
| 20260905164600 | 31 | 244 | 3.2 | 11.3 | 0.00 | 0.00 | 0.00 | 67 | 1013.3 |
| 20260905163028 | 31 | 215 | 4.8 | 12.9 | 0.00 | 0.00 | 0.00 | 68 | 1013.2 |
| 20260905161559 | 31 | 114 | 3.2 | 12.9 | 0.00 | 0.00 | 0.00 | 67 | 1013.3 |
| 20260905160111 | 30 | 222 | 4.8 | 16.1 | 0.00 | 0.00 | 0.00 | 69 | 1013.1 |
| 20260905154529 | 30 | 185 | 6.4 | 14.5 | 0.00 | 0.00 | 0.00 | 70 | 1013.2 |
| 20260905153110 | 30 | 236 | 3.2 | 14.5 | 0.00 | 0.00 | 0.00 | 70 | 1013.4 |
| 20260905151537 | 29 | 259 | 3.2 | 12.9 | 0.00 | 0.00 | 0.00 | 72 | 1013.0 |
| 20260905150051 | 28 | 154 | 4.8 | 19.3 | 0.00 | 0.00 | 0.00 | 73 | 1013.3 |
| 20260905144507 | 28 | 132 | 4.8 | 17.7 | 0.00 | 0.00 | 0.00 | 73 | 1013.6 |
| 20260905143047 | 27 | 149 | 3.2 | 11.3 | 0.00 | 0.00 | 0.00 | 77 | 1013.6 |
| 20260905141504 | 27 | 193 | 4.8 | 17.7 | 0.00 | 0.00 | 0.00 | 77 | 1013.1 |
| 20260905140016 | 27 | 157 | 0.0 | 6.4 | 0.00 | 0.00 | 0.00 | 81 | 1013.0 |
| 20260905134559 | 26 | 134 | 3.2 | 12.9 | 0.00 | 0.00 | 0.00 | 81 | 1012.9 |
| 20260905133014 | 26 | 93 | 0.0 | 12.9 | 0.00 | 0.00 | 0.00 | 82 | 1013.1 |
| 20260905131604 | 26 | 162 | 1.6 | 11.3 | 0.00 | 0.00 | 0.00 | 83 | 1013.2 |
| 20260905130109 | 25 | 141 | 3.2 | 12.9 | 0.00 | 0.00 | 0.00 | 84 | 1013.2 |
| 20260905124524 | 25 | 161 | 1.6 | 11.3 | 0.00 | 0.00 | 0.00 | 85 | 1013.3 |
| 20260905123113 | 25 | 176 | 1.6 | 9.7 | 0.00 | 0.00 | 0.00 | 89 | 1013.1 |
| 20260905121519 | 25 | 107 | 0.0 | 12.9 | 0.00 | 0.00 | 0.00 | 92 | 1012.8 |
| 20260905120045 | 24 | 212 | 0.0 | 0.0 | 0.00 | 0.00 | 0.00 | 93 | 1012.5 |
| 20260905114616 | 23 | 211 | 0.0 | 0.0 | 0.00 | 0.00 | 0.00 | 93 | 1012.4 |
| 20260905113029 | 23 | 211 | 0.0 | 0.0 | 0.00 | 0.00 | 0.00 | 93 | 1012.6 |
| 20260905111609 | 23 | 212 | 0.0 | 0.0 | 0.00 | 0.00 | 0.00 | 93 | 1012.3 |
| 20260905110007 | 23 | 212 | 0.0 | 0.0 | 0.00 | 0.00 | 0.00 | 93 | 1012.2 |
| 20260905104551 | 23 | 213 | 0.0 | 1.6 | 0.00 | 0.00 | 0.00 | 92 | 1012.2 |
| 20260905103003 | 24 | 211 | 0.0 | 1.6 | 0.00 | 0.00 | 0.00 | 92 | 1012.1 |
| 20260905101546 | 24 | 212 | 0.0 | 1.6 | 0.00 | 0.00 | 0.00 | 91 | 1012.1 |
| 20260905100108 | 24 | 211 | 0.0 | 1.6 | 0.00 | 0.00 | 0.00 | 91 | 1012.3 |
| 20260905094517 | 24 | 212 | 0.0 | 1.6 | 0.00 | 0.00 | 0.00 | 91 | 1012.5 |
| 20260905093058 | 24 | 211 | 0.0 | 0.0 | 0.00 | 0.00 | 0.00 | 91 | 1012.4 |
| 20260905091511 | 25 | 212 | 0.0 | 0.0 | 0.00 | 0.00 | 0.00 | 90 | 1012.2 |
| 20260905090025 | 25 | 212 | 0.0 | 0.0 | 0.00 | 0.00 | 0.00 | 90 | 1012.2 |
| 20260905084613 | 25 | 212 | 0.0 | 0.0 | 0.00 | 0.00 | 0.00 | 89 | 1012.2 |
| 20260905083020 | 25 | 212 | 0.0 | 3.2 | 0.00 | 0.00 | 0.00 | 90 | 1012.3 |
| 20260905081602 | 25 | 212 | 0.0 | 0.0 | 0.00 | 0.00 | 0.00 | 89 | 1012.1 |
| 20260905080141 | 25 | 213 | 0.0 | 1.6 | 0.00 | 0.00 | 0.00 | 88 | 1011.8 |
| 20260905074543 | 25 | 212 | 0.0 | 3.2 | 0.00 | 0.00 | 0.00 | 88 | 1011.8 |
| 20260905073114 | 25 | 212 | 0.0 | 4.8 | 0.00 | 0.00 | 0.00 | 88 | 1011.7 |
| 20260905071541 | 25 | 215 | 1.6 | 4.8 | 0.00 | 0.00 | 0.00 | 89 | 1011.5 |
| 20260905070057 | 25 | 205 | 1.6 | 6.4 | 0.00 | 0.00 | 0.00 | 89 | 1011.7 |
| 20260905064511 | 25 | 203 | 0.0 | 0.0 | 0.00 | 0.00 | 0.00 | 89 | 1011.7 |
| 20260905063054 | 26 | 203 | 0.0 | 0.0 | 0.00 | 0.00 | 0.00 | 89 | 1012.0 |
| 20260905061509 | 26 | 203 | 0.0 | 0.0 | 0.00 | 0.00 | 0.00 | 88 | 1012.3 |
| 20260905060039 | 26 | 203 | 0.0 | 0.0 | 0.00 | 0.00 | 0.00 | 87 | 1012.6 |
| 20260905054623 | 26 | 203 | 0.0 | 0.0 | 0.00 | 0.00 | 0.00 | 87 | 1012.5 |
| 20260905053022 | 26 | 203 | 0.0 | 0.0 | 0.00 | 0.00 | 0.00 | 86 | 1012.6 |
| 20260905051605 | 26 | 203 | 0.0 | 1.6 | 0.00 | 0.00 | 0.00 | 86 | 1012.6 |
| 20260905050002 | 27 | 203 | 0.0 | 1.6 | 0.00 | 0.00 | 0.00 | 85 | 1012.7 |
| 20260905044547 | 27 | 203 | 0.0 | 1.6 | 0.00 | 0.00 | 0.00 | 84 | 1012.6 |
| 20260905043116 | 27 | 203 | 0.0 | 3.2 | 0.00 | 0.00 | 0.00 | 84 | 1012.7 |
| 20260905041543 | 27 | 203 | 0.0 | 1.6 | 0.00 | 0.00 | 0.00 | 83 | 1012.6 |
| 20260905040055 | 27 | 203 | 0.0 | 4.8 | 0.00 | 0.00 | 0.00 | 83 | 1012.9 |
| 20260905034515 | 27 | 201 | 0.0 | 3.2 | 0.00 | 0.00 | 0.00 | 82 | 1012.7 |
| 20260905033052 | 27 | 201 | 0.0 | 1.6 | 0.00 | 0.00 | 0.00 | 82 | 1012.7 |
| 20260905031511 | 28 | 201 | 0.0 | 3.2 | 0.00 | 0.00 | 0.00 | 82 | 1012.9 |
| 20260905030035 | 28 | 200 | 0.0 | 3.2 | 0.00 | 0.00 | 0.00 | 81 | 1012.8 |
| 20260905024606 | 28 | 201 | 0.0 | 1.6 | 0.00 | 0.00 | 0.00 | 80 | 1012.9 |
| 20260905023031 | 28 | 200 | 0.0 | 1.6 | 0.00 | 0.00 | 0.00 | 79 | 1012.8 |
| 20260905021604 | 29 | 200 | 0.0 | 0.0 | 0.00 | 0.00 | 0.00 | 79 | 1012.6 |
| 20260905020001 | 29 | 200 | 0.0 | 1.6 | 0.00 | 0.00 | 0.00 | 78 | 1012.5 |
| 20260905014544 | 30 | 201 | 0.0 | 3.2 | 0.00 | 0.00 | 0.00 | 77 | 1012.4 |
| 20260905013114 | 30 | 205 | 0.0 | 4.8 | 0.00 | 0.00 | 0.00 | 76 | 1012.3 |
| 20260905011605 | 30 | 209 | 0.0 | 4.8 | 0.00 | 0.00 | 0.00 | 75 | 1012.2 |
| 20260905010054 | 31 | 213 | 0.0 | 1.6 | 0.00 | 0.00 | 0.00 | 74 | 1012.1 |
| 20260905004511 | 31 | 212 | 0.0 | 1.6 | 0.00 | 0.00 | 0.00 | 72 | 1012.2 |
| 20260905003055 | 32 | 212 | 0.0 | 3.2 | 0.00 | 0.00 | 0.00 | 71 | 1012.1 |
| 20260905001503 | 32 | 212 | 0.0 | 3.2 | 0.00 | 0.00 | 0.00 | 69 | 1012.2 |
| 20260905000013 | 33 | 211 | 1.6 | 4.8 | 0.00 | 0.00 | 0.00 | 67 | 1012.2 |
| 20260904234555 | 33 | 220 | 1.6 | 6.4 | 0.00 | 0.00 | 0.00 | 64 | 1012.3 |
| 20260904233030 | 34 | 213 | 1.6 | 6.4 | 0.00 | 0.00 | 0.00 | 63 | 1012.1 |
| 20260904231554 | 35 | 201 | 3.2 | 12.9 | 0.00 | 0.00 | 0.00 | 61 | 1011.9 |
| 20260904230106 | 35 | 222 | 1.6 | 12.9 | 0.00 | 0.00 | 0.00 | 60 | 1011.9 |